BUGSAT 1

Satellite information

Favourite Embed

Satellite Type and Status

PAYLOADIN ORBIT

Key statistics

Satellite BUGSAT 1 at a glance.

Uptime

4100

Days in orbit

Revolutions

≈ 15.1

Per day

Orbit

SSO

Sun Synchronous Orbit

Inclination

98.1

Latest

Satellite identification and parameters

Extended collection of information and parameters for BUGSAT 1.

Object identification

Identified? True

Debris? False

Object name: BUGSAT 1

International designator: 2014-033E

Object number (NORAD): 40014

Object ID (CCSDS): 40014

Country: ARGENTINA (ARGN)

Current information (Y/N): Y

RCS size: MEDIUM

Orbital parameters

Period: 95.255 minutes

Inclination: 98.0676 deg

SMA: 6909.078 km

Apoapsis: 552.792 km

Periapsis: 509.094 km

RAAN: 322.5575 deg

Eccentricy: 0.00316235

Argument of periapsis: 63.8323 deg

Mean anomaly: 296.6153 deg

Mean motion: 15.11724513 rev/day

Mean motion (dot): 0.00005725 rev/day2

B* drag term: 0.00033624343 1/REarth

Two-line elements (TLE)

Creation date: Sept. 8, 2025, 3:16 a.m.

Reference frame: TEME

Reference center: EARTH

Epoch: Sept. 7, 2025, 11:45 p.m. UTC

TLE line 0: 0 BUGSAT 1

TLE line 1: 1 40014U 14033E 25250.98987961 .00005725 00000-0 33624-3 0 9991

TLE line 2: 2 40014 98.0676 322.5575 0031624 63.8323 296.6153 15.11724513613144

Live tracking on map

Real-time ground track for satellite BUGSAT 1.

In-orbit conjunctions

There are no conjunctions computed for BUGSAT 1, at the moment. Check back to stay up to date, as we update our databases every day.

Go to all conjunctions

Associated space launch

BUGSAT 1 was lifted into orbit during the mission ‘Dnepr 1 | Multipayload, 37 satellites.’, on board a Dnepr space rocket.

The launch took place on June 19, 2014, 7:11 p.m. from 370/13.

For more information about the launch, click the button.

Launch to space Dnepr 1 | Multipayload, 37 satellites.
Dnepr 1 | Multipayload, 37 satellites.

Agency: N/A

Status: Launch Successful

Launch date: June 19, 2014, 7:11 p.m. UTC

Rocket: Dnepr

Launch pad: 370/13

Location: Dombarovskiy, Russian Federation

...

Latest news about this satellite

There are no fresh news available about this satellite. Check back as we update our databases every day.


Newsletter sign-up

Weekly statistics, charts and insights to help you stay on top of the space industry.